Meteo Giornale » Osservazioni meteo Italia » Bari-Palese Macchie

ore: 14:50 - Osservazioni Meteo Bari-Palese Macchie
Lat. 41° 8' N Lon. 16° 47' E Alt. 34 metri s.l.m.

sereno Europe/Rome

27 °C

Sereno

Temp. 24 Ore

19 °C

29 °C

Nord-Est

11.1 Km/h

Dew point 18 °C

Umidità 57 %

Visibilità  10 Km

Il sole sorge alle ore 06:36

Il sole tramonta alle ore 18:56

Data e Ora Cielo e Fenomeni T °C DP °C Um. % Pres. hPa Vis. km Vento km/h
Oggi h: 14:50 sereno Sereno 27 18 57 1012 10 NE 11.1
Oggi h: 14:20 sereno Sereno 28 16 48 1012 10 N/NE 9.3
Oggi h: 13:50 sereno Sereno 27 15 47 1013 10 N/NO 11.1
Oggi h: 13:20 sereno Sereno 29 14 39 1013 10 N/NO 11.1
Oggi h: 12:20 sereno Sereno 27 15 47 1013 10 N/NO 14.8
Oggi h: 11:50 sereno Sereno 27 16 50 1013 10 N 14.8
Oggi h: 11:20 sereno Sereno 28 15 45 1013 10 N 13
Oggi h: 10:50 sereno Sereno 27 16 50 1013 10 NO 13
Oggi h: 10:20 sereno Sereno 27 16 50 1013 10 O/NO 13
Oggi h: 09:20 sereno Sereno 25 18 65 1013 10 O/NO 9.3
Oggi h: 08:50 sereno Sereno 25 17 61 1012 10 N 5.5
Oggi h: 08:20 sereno Sereno 23 18 73 1012 10 N 5.5
Oggi h: 07:50 sereno Sereno 21 18 82 1012 10 O/SO 7.4
Oggi h: 07:20 sereno Sereno 20 17 82 1012 10 SO 7.4
Oggi h: 06:50 sereno Sereno 20 17 82 1012 10 N 5.5
Oggi h: 06:20 sereno Sereno 20 17 82 1012 10 O/SO 7.4
Oggi h: 05:50 sereno Sereno 20 17 82 1012 10 SO 9.3
Oggi h: 05:20 sereno Sereno 19 17 88 1012 10 O/SO 9.3
Oggi h: 04:50 sereno Sereno 20 17 82 1012 10 SO 11.1
Oggi h: 04:20 sereno Sereno 20 17 82 1012 10 O/SO 9.3
Oggi h: 03:50 sereno Sereno 21 18 82 1012 10 O 7.4
Oggi h: 03:20 sereno Sereno 22 18 78 1012 10 O 7.4
Oggi h: 02:50 sereno Sereno 21 18 82 1012 10 SO 11.1
Oggi h: 01:50 sereno Sereno 21 17 77 1012 10 O/SO 13
Oggi h: 01:20 sereno Sereno 22 17 73 1012 10 O/SO 11.1
Oggi h: 00:20 sereno Sereno 22 16 68 1012 10 O 7.4
Ieri h: 23:50 sereno Sereno 22 18 78 1012 10 N 5.5
Ieri h: 23:20 sereno Sereno 22 20 88 1012 10 N 3.7
Ieri h: 22:50 sereno Sereno 23 20 83 1012 10 N 5.5
Ieri h: 22:20 sereno Sereno 23 20 83 1012 10 N 3.7
Ieri h: 21:50 sereno Sereno 23 19 78 1013 10 N 3.7
Ieri h: 21:20 sereno Sereno 24 19 73 1013 10 N 5.5
Ieri h: 20:50 sereno Sereno 24 19 73 1012 10 N 5.5
Ieri h: 20:20 sereno Sereno 24 19 73 1012 10 E/SE 9.3
Ieri h: 19:50 poco_nuvoloso Poco Nuvoloso 25 20 73 1012 10 E 13
Ieri h: 19:20 poco_nuvoloso Poco Nuvoloso 25 20 73 1012 10 E 14.8
Ieri h: 18:20 sereno Sereno 26 19 65 1012 10 E/NE 11.1
Ieri h: 17:50 poco_nuvoloso Poco Nuvoloso 26 18 61 1012 10 E/NE 14.8
Ieri h: 17:20 poco_nuvoloso Poco Nuvoloso 27 18 57 1012 10 E 14.8
Ieri h: 16:50 poco_nuvoloso Poco Nuvoloso 26 19 65 1012 10 E 18.5
Ieri h: 16:20 poco_nuvoloso Poco Nuvoloso 26 20 69 1012 10 E/NE 18.5
Ieri h: 15:50 sereno Sereno 26 20 69 1012 10 E/NE 14.8